# STATION: NAA,,
# STATION NAME: Neil Armstrong Academy,,
# LATITUDE: 40.71152,,
# LONGITUDE: -112.01448,,
# ELEVATION [ft]: 4260,,
# STATE: UT,,
Station_ID,Date_Time,ozone_concentration_set_1
,,ppb
NAA,201506010000,51.04
NAA,201506010005,55.19
NAA,201506010010,53.81
NAA,201506010015,55.01
NAA,201506010020,54.96
NAA,201506010025,55.85
NAA,201506010030,54.36
NAA,201506010035,56.79
NAA,201506010040,55.29
NAA,201506010045,53.9
NAA,201506010050,55.1
NAA,201506010055,52.14
NAA,201506010100,55.05
NAA,201506010105,52.93
NAA,201506010110,53.02
NAA,201506010115,49.42
NAA,201506010120,49.24
NAA,201506010125,50.36
NAA,201506010130,49.25
NAA,201506010135,50.13
NAA,201506010140,53.3
NAA,201506010145,49.46
NAA,201506010150,52.38
NAA,201506010155,52.84
NAA,201506010200,50.94
NAA,201506010205,48.38
NAA,201506010210,50.09
NAA,201506010215,50.22
NAA,201506010220,45.67
NAA,201506010225,43.62
NAA,201506010230,43.06
NAA,201506010235,41.71
NAA,201506010240,38.92
NAA,201506010245,38.78
NAA,201506010250,42.73
NAA,201506010255,41.13
NAA,201506010300,36.47
NAA,201506010305,28.05
NAA,201506010310,26.59
NAA,201506010315,26.87
NAA,201506010320,30.14
NAA,201506010325,29.99
NAA,201506010330,31.68
NAA,201506010335,26.66
NAA,201506010340,27.04
NAA,201506010345,28.73
NAA,201506010350,26.72
NAA,201506010355,25.68
NAA,201506010400,22.45
NAA,201506010405,19.87
NAA,201506010410,16.7
NAA,201506010415,18.49
NAA,201506010420,16.91
NAA,201506010425,13.87
NAA,201506010430,11.07
NAA,201506010435,7.95
NAA,201506010440,7.17
NAA,201506010445,7.35
NAA,201506010450,10.44
NAA,201506010455,21.6
NAA,201506010500,25.06
NAA,201506010505,25.89
NAA,201506010510,26.72
NAA,201506010515,28.67
NAA,201506010520,29.79
NAA,201506010525,30.33
NAA,201506010530,32.13
NAA,201506010535,31.98
NAA,201506010540,32.9
NAA,201506010545,34.3
NAA,201506010550,34.31
NAA,201506010555,34.91
NAA,201506010600,35.11
NAA,201506010605,35.44
NAA,201506010610,34.97
NAA,201506010615,35.21
NAA,201506010620,35.05
NAA,201506010625,34.99
NAA,201506010630,35.87
NAA,201506010635,34.61
NAA,201506010640,34.2
NAA,201506010645,34.28
NAA,201506010650,36.08
NAA,201506010655,34.91
NAA,201506010700,34.68
NAA,201506010705,34.43
NAA,201506010710,34.71
NAA,201506010715,35.03
NAA,201506010720,34.71
NAA,201506010725,35.16
NAA,201506010730,34.48
NAA,201506010735,36.1
NAA,201506010740,37.01
NAA,201506010745,36.4
NAA,201506010750,36.48
NAA,201506010755,35.93
NAA,201506010800,35.43
NAA,201506010805,36.34
NAA,201506010810,36.1
NAA,201506010815,35.96
NAA,201506010820,35.4
NAA,201506010825,35.22
NAA,201506010830,35.42
NAA,201506010835,35.48
NAA,201506010840,34.21
NAA,201506010845,33.82
NAA,201506010850,33.22
NAA,201506010855,33.7
NAA,201506010900,34.09
NAA,201506010905,33.97
NAA,201506010910,33.88
NAA,201506010915,35.04
NAA,201506010920,35.8
NAA,201506010925,35.53
NAA,201506010930,35.23
NAA,201506010935,35.68
NAA,201506010940,36.01
NAA,201506010945,37.02
NAA,201506010950,37.42
NAA,201506010955,37.73
NAA,201506011000,38.97
NAA,201506011005,40.21
NAA,201506011010,39.29
NAA,201506011015,39
NAA,201506011020,39.07
NAA,201506011025,39.38
NAA,201506011030,38.61
NAA,201506011035,37.55
NAA,201506011040,36.86
NAA,201506011045,36.96
NAA,201506011050,36.36
NAA,201506011055,35.69
NAA,201506011100,36.04
NAA,201506011105,35.46
NAA,201506011110,36.02
NAA,201506011115,35.32
NAA,201506011120,34.76
NAA,201506011125,34.67
NAA,201506011130,34.82
NAA,201506011135,33.93
NAA,201506011140,34.53
NAA,201506011145,33.65
NAA,201506011150,34.3
NAA,201506011155,34.4
NAA,201506011200,34.95
NAA,201506011205,35.3
NAA,201506011210,34.1
NAA,201506011215,34.85
NAA,201506011220,35.43
NAA,201506011225,35.34
NAA,201506011230,34.61
NAA,201506011235,35.66
NAA,201506011240,34.96
NAA,201506011245,35.08
NAA,201506011250,34.67
NAA,201506011255,33.97
NAA,201506011300,31.77
NAA,201506011305,30.99
NAA,201506011310,29.59
NAA,201506011315,29.54
NAA,201506011320,28.99
NAA,201506011325,29.79
NAA,201506011330,30.96
NAA,201506011335,30.51
NAA,201506011340,31.13
NAA,201506011345,30.9
NAA,201506011350,31.41
NAA,201506011355,30.82
NAA,201506011400,30.98
NAA,201506011405,31.85
NAA,201506011410,29.64
NAA,201506011415,30.4
NAA,201506011420,31.08
NAA,201506011425,31.37
NAA,201506011430,29.87
NAA,201506011435,30.58
NAA,201506011440,32.09
NAA,201506011445,31.94
NAA,201506011450,32.76
NAA,201506011455,32.42
NAA,201506011500,31.72
NAA,201506011505,34.07
NAA,201506011510,34.43
NAA,201506011515,34.31
NAA,201506011520,33.91
NAA,201506011525,34.55
NAA,201506011530,36.38
NAA,201506011535,36.13
NAA,201506011540,36.51
NAA,201506011545,35.78
NAA,201506011550,35.33
NAA,201506011555,36.89
NAA,201506011600,37.35
NAA,201506011605,37.91
NAA,201506011610,38.15
NAA,201506011615,37.83
NAA,201506011620,36.99
NAA,201506011625,38.33
NAA,201506011630,37.42
NAA,201506011635,38.91
NAA,201506011640,38.58
NAA,201506011645,38.17
NAA,201506011650,38.04
NAA,201506011655,38.43
NAA,201506011700,38.73
NAA,201506011705,38.98
NAA,201506011710,38.51
NAA,201506011715,38.31
NAA,201506011720,38.96
NAA,201506011725,38.01
NAA,201506011730,38.78
NAA,201506011735,37.48
NAA,201506011740,37.58
NAA,201506011745,38.26
NAA,201506011750,38.25
NAA,201506011755,38.29
NAA,201506011800,37.86
NAA,201506011805,38.9
NAA,201506011810,39.5
NAA,201506011815,38.61
NAA,201506011820,38.22
NAA,201506011825,37.61
NAA,201506011830,37.44
NAA,201506011835,37.87
NAA,201506011840,38.8
NAA,201506011845,38.43
NAA,201506011850,38.28
NAA,201506011855,38.28
NAA,201506011900,37.74
NAA,201506011905,43.33
NAA,201506011910,38.7
NAA,201506011915,38.87
NAA,201506011920,37.73
NAA,201506011925,40.5
NAA,201506011930,38.47
NAA,201506011935,38.42
NAA,201506011940,38.84
NAA,201506011945,39.04
NAA,201506011950,38.24
NAA,201506011955,39.72
NAA,201506012000,41.6
NAA,201506012005,42.86
NAA,201506012010,42.58
NAA,201506012015,43.07
NAA,201506012020,42.25
NAA,201506012025,42.66
NAA,201506012030,42.06
NAA,201506012035,43.87
NAA,201506012040,43.19
NAA,201506012045,45.26
NAA,201506012050,45.55
NAA,201506012055,45.81
NAA,201506012100,48.12
NAA,201506012105,48.2
NAA,201506012110,47.53
NAA,201506012115,48.24
NAA,201506012120,48.11
NAA,201506012125,47.73
NAA,201506012130,46.22
NAA,201506012135,44.97
NAA,201506012140,48.51
NAA,201506012145,47.88
NAA,201506012150,47.57
NAA,201506012155,47.67
NAA,201506012200,47.36
NAA,201506012205,47.17
NAA,201506012210,46.77
NAA,201506012215,47.96
NAA,201506012220,47.17
NAA,201506012225,46.39
NAA,201506012230,45.57
NAA,201506012235,47.22
NAA,201506012240,47.24
NAA,201506012245,44.67
NAA,201506012250,46.38
NAA,201506012255,46.88
NAA,201506012300,47.26
NAA,201506012305,47.42
NAA,201506012310,46.96
NAA,201506012315,45.64
NAA,201506012320,45.23
NAA,201506012325,46.9
NAA,201506012330,45.7
NAA,201506012335,44.26
NAA,201506012340,45.94
NAA,201506012345,44.81
NAA,201506012350,50.24
NAA,201506012355,50.27
NAA,201506020000,47
NAA,201506020005,47.59
NAA,201506020010,48.78
NAA,201506020015,48.17
NAA,201506020020,46.78
NAA,201506020025,45.28
NAA,201506020030,44.77
NAA,201506020035,44.86
NAA,201506020040,43.26
NAA,201506020045,40.43
NAA,201506020050,42.01
NAA,201506020055,52.91
NAA,201506020100,40.95
NAA,201506020105,38.93
NAA,201506020110,40.21
NAA,201506020115,39.9
NAA,201506020120,38.89
NAA,201506020125,40.47
NAA,201506020130,39.37
NAA,201506020135,37.65
NAA,201506020140,37.7
NAA,201506020145,40.93
NAA,201506020150,41.95
NAA,201506020155,41.64
NAA,201506020200,40.14
NAA,201506020205,40.81
NAA,201506020210,38.2
NAA,201506020215,41.51
NAA,201506020220,42.41
NAA,201506020225,40.82
NAA,201506020230,40.66
NAA,201506020235,41.54
NAA,201506020240,40.76
NAA,201506020245,38.03
NAA,201506020250,37.63
NAA,201506020255,41.07
NAA,201506020300,40.89
NAA,201506020305,39.88
NAA,201506020310,37.16
NAA,201506020315,39.48
NAA,201506020320,41.8
NAA,201506020325,40.39
NAA,201506020330,41.02
NAA,201506020335,41.03
NAA,201506020340,41.94
NAA,201506020345,41.54
NAA,201506020350,43.16
NAA,201506020355,41.58
NAA,201506020400,42.39
NAA,201506020405,42.18
NAA,201506020410,44.3
NAA,201506020415,44.15
NAA,201506020420,42.77
NAA,201506020425,42.3
NAA,201506020430,43.95
NAA,201506020435,42.73
NAA,201506020440,41.84
NAA,201506020445,41.41
NAA,201506020450,42.5
NAA,201506020455,40.87
NAA,201506020500,40.88
NAA,201506020505,38.36
NAA,201506020510,36.14
NAA,201506020515,38.65
NAA,201506020520,37.16
NAA,201506020525,32.39
NAA,201506020530,27.47
NAA,201506020535,24.54
NAA,201506020540,25.32
NAA,201506020545,33.75
NAA,201506020550,34.96
NAA,201506020555,33.86
NAA,201506020600,31.66
NAA,201506020605,33.77
NAA,201506020610,37.34
NAA,201506020615,33.21
NAA,201506020620,30.8
NAA,201506020625,31.19
NAA,201506020630,29.27
NAA,201506020635,24.98
NAA,201506020640,26.15
NAA,201506020645,27.53
NAA,201506020650,27.38
NAA,201506020655,23.09
NAA,201506020700,19.3
NAA,201506020705,14.71
NAA,201506020710,17.36
NAA,201506020715,17.15
NAA,201506020720,13.52
NAA,201506020725,14.64
NAA,201506020730,14.01
NAA,201506020735,16.08
NAA,201506020740,11.98
NAA,201506020745,18.03
NAA,201506020750,13.63
NAA,201506020755,14.56
NAA,201506020800,15.68
NAA,201506020805,18.8
NAA,201506020810,17.06
NAA,201506020815,14.73
NAA,201506020820,16.19
NAA,201506020825,13.94
NAA,201506020830,9.15
NAA,201506020835,11.36
NAA,201506020840,15.96
NAA,201506020845,13.75
NAA,201506020850,16.85
NAA,201506020855,17.45
NAA,201506020900,16.83
NAA,201506020905,19.22
NAA,201506020910,19.78
NAA,201506020915,18.7
NAA,201506020920,17.34
NAA,201506020925,14.9
NAA,201506020930,12.82
NAA,201506020935,11.16
NAA,201506020940,11.95
NAA,201506020945,12.15
NAA,201506020950,12.65
NAA,201506020955,12.59
NAA,201506021000,16.09
NAA,201506021005,15.22
NAA,201506021010,12.49
NAA,201506021015,11.43
NAA,201506021020,11.61
NAA,201506021025,12.65
NAA,201506021030,9.87
NAA,201506021035,11.49
NAA,201506021040,8.72
NAA,201506021045,9.57
NAA,201506021050,7.51
NAA,201506021055,8.11
NAA,201506021100,8.09
NAA,201506021105,12.78
NAA,201506021110,12.26
NAA,201506021115,14.07
NAA,201506021120,10.11
NAA,201506021125,8.9
NAA,201506021130,10.04
NAA,201506021135,8.32
NAA,201506021140,4.38
NAA,201506021145,7.3
NAA,201506021150,8.58
NAA,201506021155,9.62
NAA,201506021200,4.06
NAA,201506021205,3.07
NAA,201506021210,4.03
NAA,201506021215,3.48
NAA,201506021220,3.26
NAA,201506021225,2.68
NAA,201506021230,2.45
NAA,201506021235,2.08
NAA,201506021240,1.94
NAA,201506021245,1.79
NAA,201506021250,1.24
NAA,201506021255,2.04
NAA,201506021300,2.33
NAA,201506021305,2.25
NAA,201506021310,4.05
NAA,201506021315,4.37
NAA,201506021320,6.97
NAA,201506021325,7.72
NAA,201506021330,8.38
NAA,201506021335,7.51
NAA,201506021340,8.37
NAA,201506021345,12.2
NAA,201506021350,12.64
NAA,201506021355,11.84
NAA,201506021400,9.45
NAA,201506021405,10.61
NAA,201506021410,12.17
NAA,201506021415,11.41
NAA,201506021420,12.15
NAA,201506021425,12.49
NAA,201506021430,12.43
NAA,201506021435,15.33
NAA,201506021440,17
NAA,201506021445,19.78
NAA,201506021450,23.21
NAA,201506021455,26.79
NAA,201506021500,27.71
NAA,201506021505,27.22
NAA,201506021510,25.41
NAA,201506021515,27.09
NAA,201506021520,28.36
NAA,201506021525,30.1
NAA,201506021530,31.21
NAA,201506021535,39.49
NAA,201506021540,40.43
NAA,201506021545,38.45
NAA,201506021550,39.51
NAA,201506021555,34.56
NAA,201506021600,39.04
NAA,201506021605,38.02
NAA,201506021610,42.26
NAA,201506021615,42.26
NAA,201506021620,42.51
NAA,201506021625,44.76
NAA,201506021630,41.44
NAA,201506021635,42.25
NAA,201506021640,43.37
NAA,201506021645,40.86
NAA,201506021650,42.4
NAA,201506021655,44.67
NAA,201506021700,46.01
NAA,201506021705,45.04
NAA,201506021710,45.3
NAA,201506021715,47.26
NAA,201506021720,43.61
NAA,201506021725,44.03
NAA,201506021730,44.74
NAA,201506021735,47.44
NAA,201506021740,46.88
NAA,201506021745,44.85
NAA,201506021750,45.83
NAA,201506021755,44.78
NAA,201506021800,43.5
NAA,201506021805,43.85
NAA,201506021810,41.78
NAA,201506021815,42.46
NAA,201506021820,42.51
NAA,201506021825,43.54
NAA,201506021830,45.99
NAA,201506021835,44.47
NAA,201506021840,44.42
NAA,201506021845,45.99
NAA,201506021850,46.22
NAA,201506021855,46.08
NAA,201506021900,46.45
NAA,201506021905,45.92
NAA,201506021910,47.04
NAA,201506021915,44.42
NAA,201506021920,46.54
NAA,201506021925,44.68
NAA,201506021930,46.55
NAA,201506021935,45.8
NAA,201506021940,45.14
NAA,201506021945,44.31
NAA,201506021950,39.15
NAA,201506021955,41.77
NAA,201506022000,44.82
NAA,201506022005,45.43
NAA,201506022010,46.26
NAA,201506022015,46.22
NAA,201506022020,45.81
NAA,201506022025,46.21
NAA,201506022030,45.24
NAA,201506022035,47.69
NAA,201506022040,47.05
NAA,201506022045,49.5
NAA,201506022050,48.79
NAA,201506022055,49.12
NAA,201506022100,47.5
NAA,201506022105,46.2
NAA,201506022110,45.44
NAA,201506022115,41.68
NAA,201506022120,42.39
NAA,201506022125,39.85
NAA,201506022130,38.15
NAA,201506022135,38.7
NAA,201506022140,40.18
NAA,201506022145,39.23
NAA,201506022150,41.09
NAA,201506022155,42.91
NAA,201506022200,43.29
NAA,201506022205,43.74
NAA,201506022210,44.99
NAA,201506022215,45.76
NAA,201506022220,44.97
NAA,201506022225,45.89
NAA,201506022230,45.74
NAA,201506022235,46.95
NAA,201506022240,46.94
NAA,201506022245,47.49
NAA,201506022250,47.09
NAA,201506022255,47.2
NAA,201506022300,46.68
NAA,201506022305,47.21
NAA,201506022310,47.37
NAA,201506022315,47.75
NAA,201506022320,47.99
NAA,201506022325,46.5
NAA,201506022330,46.89
NAA,201506022335,46.12
NAA,201506022340,47.1
NAA,201506022345,46.92
NAA,201506022350,47.59
NAA,201506022355,47.14
NAA,201506030000,45.71
NAA,201506030005,38.11
NAA,201506030010,46.5
NAA,201506030015,46.7
NAA,201506030020,47.92
NAA,201506030025,47.66
NAA,201506030030,47.3
NAA,201506030035,46.76
NAA,201506030040,48.17
NAA,201506030045,46.63
NAA,201506030050,46.04
NAA,201506030055,45.9
NAA,201506030100,47.44
NAA,201506030105,46.29
NAA,201506030110,46.13
NAA,201506030115,45.38
NAA,201506030120,46.04
NAA,201506030125,44.78
NAA,201506030130,45.45
NAA,201506030135,44.91
NAA,201506030140,47.2
NAA,201506030145,46.48
NAA,201506030150,47.35
NAA,201506030155,42.99
NAA,201506030200,43.78
NAA,201506030205,43.72
NAA,201506030210,41.69
NAA,201506030215,44.41
NAA,201506030220,39.5
NAA,201506030225,42.09
NAA,201506030230,43.85
NAA,201506030235,43.59
NAA,201506030240,41.6
NAA,201506030245,41.2
NAA,201506030250,39.52
NAA,201506030255,35.66
NAA,201506030300,36.16
NAA,201506030305,37.24
NAA,201506030310,29.94
NAA,201506030315,32.74
NAA,201506030320,28.57
NAA,201506030325,26.25
NAA,201506030330,28.09
NAA,201506030335,28.75
NAA,201506030340,29.43
NAA,201506030345,25.72
NAA,201506030350,23.27
NAA,201506030355,22.37
NAA,201506030400,23.09
NAA,201506030405,26.13
NAA,201506030410,26.11
NAA,201506030415,26.72
NAA,201506030420,27.14
NAA,201506030425,27.45
NAA,201506030430,27.9
NAA,201506030435,27.46
NAA,201506030440,27.08
NAA,201506030445,25.72
NAA,201506030450,22.43
NAA,201506030455,19.37
NAA,201506030500,21.11
NAA,201506030505,21.56
NAA,201506030510,23.61
NAA,201506030515,24.18
NAA,201506030520,23.97
NAA,201506030525,23.98
NAA,201506030530,25.74
NAA,201506030535,26.11
NAA,201506030540,26.68
NAA,201506030545,27.23
NAA,201506030550,27.62
NAA,201506030555,25.13
NAA,201506030600,24.47
NAA,201506030605,29.06
NAA,201506030610,30.13
NAA,201506030615,29.91
NAA,201506030620,27.3
NAA,201506030625,26.78
NAA,201506030630,24.68
NAA,201506030635,21.14
NAA,201506030640,17.24
NAA,201506030645,18.29
NAA,201506030650,17.8
NAA,201506030655,16.09
NAA,201506030700,19.62
NAA,201506030705,20.14
NAA,201506030710,19.86
NAA,201506030715,20.62
NAA,201506030720,18.27
NAA,201506030725,15.85
NAA,201506030730,17.51
NAA,201506030735,17.9
NAA,201506030740,14.94
NAA,201506030745,17.2
NAA,201506030750,19.15
NAA,201506030755,15.15
NAA,201506030800,11.79
NAA,201506030805,19.06
NAA,201506030810,19.47
NAA,201506030815,20.54
NAA,201506030820,19.98
NAA,201506030825,16.29
NAA,201506030830,14.65
NAA,201506030835,12.49
NAA,201506030840,12.53
NAA,201506030845,7.65
NAA,201506030850,11.24
NAA,201506030855,12.5
NAA,201506030900,12.41
NAA,201506030905,10.63
NAA,201506030910,8.77
NAA,201506030915,7.81
NAA,201506030920,5.25
NAA,201506030925,5.79
NAA,201506030930,5.69
NAA,201506030935,8.46
NAA,201506030940,11.77
NAA,201506030945,17.33
NAA,201506030950,22.02
NAA,201506030955,21.98
NAA,201506031000,22.8
NAA,201506031005,25.13
NAA,201506031010,20.31
NAA,201506031015,17.06
NAA,201506031020,18.62
NAA,201506031025,18.44
NAA,201506031030,18.8
NAA,201506031035,18.99
NAA,201506031040,19.43
NAA,201506031045,19.39
NAA,201506031050,19.17
NAA,201506031055,21.29
NAA,201506031100,20.31
NAA,201506031105,21.4
NAA,201506031110,20.81
NAA,201506031115,20.29
NAA,201506031120,18.58
NAA,201506031125,19.94
NAA,201506031130,17.75
NAA,201506031135,15.57
NAA,201506031140,16.2
NAA,201506031145,11.43
NAA,201506031150,12.14
NAA,201506031155,12.91
NAA,201506031200,9.49
NAA,201506031205,8.89
NAA,201506031210,9.44
NAA,201506031215,9.63
NAA,201506031220,14.64
NAA,201506031225,9.23
NAA,201506031230,8.39
NAA,201506031235,6.45
NAA,201506031240,10.36
NAA,201506031245,10.41
NAA,201506031250,11.72
NAA,201506031255,7.88
NAA,201506031300,9.53
NAA,201506031305,10.11
NAA,201506031310,12.77
NAA,201506031315,12.52
NAA,201506031320,11.44
NAA,201506031325,10.56
NAA,201506031330,9.77
NAA,201506031335,7.65
NAA,201506031340,5.64
NAA,201506031345,5.3
NAA,201506031350,8.3
NAA,201506031355,9.5
NAA,201506031400,14.04
NAA,201506031405,17.06
NAA,201506031410,15.42
NAA,201506031415,14.8
NAA,201506031420,12.45
NAA,201506031425,11.79
NAA,201506031430,12.46
NAA,201506031435,16.36
NAA,201506031440,20.77
NAA,201506031445,20.73
NAA,201506031450,21.6
NAA,201506031455,20.82
NAA,201506031500,21.87
NAA,201506031505,21.07
NAA,201506031510,24.26
NAA,201506031515,20.31
NAA,201506031520,21.04
NAA,201506031525,22.97
NAA,201506031530,26.61
NAA,201506031535,27.43
NAA,201506031540,30.26
NAA,201506031545,32.2
NAA,201506031550,29.54
NAA,201506031555,29.56
NAA,201506031600,31.79
NAA,201506031605,32.25
NAA,201506031610,29.87
NAA,201506031615,30.8
NAA,201506031620,33.19
NAA,201506031625,34.91
NAA,201506031630,34.18
NAA,201506031635,34.53
NAA,201506031640,35.83
NAA,201506031645,37.18
NAA,201506031650,36.06
NAA,201506031655,38.32
NAA,201506031700,37.83
NAA,201506031705,39.65
NAA,201506031710,38.23
NAA,201506031715,37.98
NAA,201506031720,42.69
NAA,201506031725,44.6
NAA,201506031730,45.82
NAA,201506031735,46.16
NAA,201506031740,45.29
NAA,201506031745,47.34
NAA,201506031750,47.03
NAA,201506031755,48.22
NAA,201506031800,49.63
NAA,201506031805,50.14
NAA,201506031810,50.73
NAA,201506031815,52.43
NAA,201506031820,49.78
NAA,201506031825,48.62
NAA,201506031830,50.14
NAA,201506031835,47.52
NAA,201506031840,43.39
NAA,201506031845,45.12
NAA,201506031850,47.4
NAA,201506031855,47.67
NAA,201506031900,48.58
NAA,201506031905,48.96
NAA,201506031910,50.76
NAA,201506031915,52.37
NAA,201506031920,53.28
NAA,201506031925,54.57
NAA,201506031930,55.33
NAA,201506031935,54.9
NAA,201506031940,55.54
NAA,201506031945,56.29
NAA,201506031950,55.9
NAA,201506031955,55.1
NAA,201506032000,56.22
NAA,201506032005,57.99
NAA,201506032010,56.8
NAA,201506032015,56.65
NAA,201506032020,57.44
NAA,201506032025,58.95
NAA,201506032030,59.3
NAA,201506032035,59.77
NAA,201506032040,61.45
NAA,201506032045,59.35
NAA,201506032050,58.44
NAA,201506032055,58.84
NAA,201506032100,57.71
NAA,201506032105,57.32
NAA,201506032110,57.77
NAA,201506032115,57.22
NAA,201506032120,56.55
NAA,201506032125,55.74
NAA,201506032130,54.24
NAA,201506032135,58.22
NAA,201506032140,56.53
NAA,201506032145,56.48
NAA,201506032150,55.13
NAA,201506032155,54.63
NAA,201506032200,52.12
NAA,201506032205,52.4
NAA,201506032210,51.73
NAA,201506032215,52.43
NAA,201506032220,53.29
NAA,201506032225,51.4
NAA,201506032230,51.99
NAA,201506032235,54.96
NAA,201506032240,53.52
NAA,201506032245,52.83
NAA,201506032250,50.48
NAA,201506032255,54.42
NAA,201506032300,62.21
NAA,201506032305,56.52
NAA,201506032310,58.79
NAA,201506032315,63.16
NAA,201506032320,64
NAA,201506032325,63.18
NAA,201506032330,48.73
NAA,201506032335,47.58
NAA,201506032340,45.27
NAA,201506032345,44.39
NAA,201506032350,43.2
NAA,201506032355,45.62
NAA,201506040000,40.54
NAA,201506040005,40.28
NAA,201506040010,51.2
NAA,201506040015,45.43
NAA,201506040020,53.12
NAA,201506040025,50.15
NAA,201506040030,52.79
NAA,201506040035,52.53
NAA,201506040040,49.69
NAA,201506040045,44.58
NAA,201506040050,43.12
NAA,201506040055,47.13
NAA,201506040100,57.52
NAA,201506040105,58.66
NAA,201506040110,56.75
NAA,201506040115,49.1
NAA,201506040120,50.13
NAA,201506040125,45.66
NAA,201506040130,48.47
NAA,201506040135,44.22
NAA,201506040140,43.01
NAA,201506040145,52.11
NAA,201506040150,56.19
NAA,201506040155,57.67
NAA,201506040200,58.03
NAA,201506040205,59.22
NAA,201506040210,59.85
NAA,201506040215,52.53
NAA,201506040220,56.54
NAA,201506040225,62.05
NAA,201506040230,67.21
NAA,201506040235,68.09
NAA,201506040240,70.74
NAA,201506040245,71.02
NAA,201506040250,68.52
NAA,201506040255,66.28
NAA,201506040300,67.82
NAA,201506040305,62.09
NAA,201506040310,58.63
NAA,201506040315,58.4
NAA,201506040320,59.48
NAA,201506040325,59.87
NAA,201506040330,64.23
NAA,201506040335,68.35
NAA,201506040340,60.19
NAA,201506040345,56.71
NAA,201506040350,52.61
NAA,201506040355,48.14
NAA,201506040400,55.75
NAA,201506040405,57.8
NAA,201506040410,59.19
NAA,201506040415,57.62
NAA,201506040420,53.32
NAA,201506040425,54.76
NAA,201506040430,57.33
NAA,201506040435,52.49
NAA,201506040440,47.5
NAA,201506040445,43.59
NAA,201506040450,41.64
NAA,201506040455,42.52
NAA,201506040500,39.96
NAA,201506040505,37.04
NAA,201506040510,38.37
NAA,201506040515,38.77
NAA,201506040520,38.29
NAA,201506040525,39.79
NAA,201506040530,39.92
NAA,201506040535,40.78
NAA,201506040540,37.02
NAA,201506040545,34.76
NAA,201506040550,37.49
NAA,201506040555,39.32
NAA,201506040600,38.82
NAA,201506040605,37.29
NAA,201506040610,38.2
NAA,201506040615,38.18
NAA,201506040620,39.7
NAA,201506040625,34.41
NAA,201506040630,36.94
NAA,201506040635,35.36
NAA,201506040640,35.32
NAA,201506040645,34.56
NAA,201506040650,32.49
NAA,201506040655,27.38
NAA,201506040700,29.77
NAA,201506040705,29.33
NAA,201506040710,36.61
NAA,201506040715,39.31
NAA,201506040720,33.79
NAA,201506040725,31.55
NAA,201506040730,31.84
NAA,201506040735,26.11
NAA,201506040740,29.21
NAA,201506040745,25.58
NAA,201506040750,34.74
NAA,201506040755,27.97
NAA,201506040800,29.4
NAA,201506040805,28.17
NAA,201506040810,31.08
NAA,201506040815,33.59
NAA,201506040820,32.89
NAA,201506040825,30.82
NAA,201506040830,32.34
NAA,201506040835,33.69
NAA,201506040840,30.83
NAA,201506040845,27.62
NAA,201506040850,27.16
NAA,201506040855,25.57
NAA,201506040900,29.96
NAA,201506040905,34.15
NAA,201506040910,31.71
NAA,201506040915,30.43
NAA,201506040920,30.06
NAA,201506040925,31.42
NAA,201506040930,31.41
NAA,201506040935,22.38
NAA,201506040940,22.64
NAA,201506040945,25.93
NAA,201506040950,25.27
NAA,201506040955,22.02
NAA,201506041000,21.01
NAA,201506041005,23.27
NAA,201506041010,20.38
NAA,201506041015,21.46
NAA,201506041020,20.76
NAA,201506041025,18.66
NAA,201506041030,16.1
NAA,201506041035,18.06
NAA,201506041040,23.45
NAA,201506041045,21.53
NAA,201506041050,22.01
NAA,201506041055,8.84
NAA,201506041100,11.16
NAA,201506041105,14.24